Hourly Data Report for January 21, 2017

All times are specified in Local Standard Time (LST). Add 1 hour to adjust for Daylight Saving Time where and when it is observed.

ST LEONARD CS
NEW BRUNSWICK

47°09'28.050" N
67°49'55.014" W
245.00 m
810I001
71019
WIY

Download Data

Hourly Data (January 2017)
Hourly Data Report for January 21, 2017
Temp Definition
°C
Dew Point Temp Definition
°C
Rel Hum Definition
%
Wind Dir Definition
10's deg

Wind Spd Definition
km/h
Visibility Definition
km
Stn Press Definition
kPa
Hmdx Definition


Wind Chill Definition


Weather Definition


TIME
00:00 -3.6 -5.2 89 14 10   98.16   -8 LegendNANA
01:00 -3.7 -5.1 90 15 11   98.09   -8 LegendNANA
02:00 -3.5 -5.0 90 16 12   98.04   -8 LegendNANA
03:00 -3.5 -5.0 90 16 9   98.04   -7 LegendNANA
04:00 -3.6 -5.0 90 16 8   98.00   -7 LegendNANA
05:00 -3.7 -5.0 91 14 10   97.93   -8 LegendNANA
06:00 -3.7 -4.8 92 15 6   97.90   -6 LegendNANA
07:00 -3.6 -4.6 93 18 8   97.87   -7 LegendNANA
08:00 -3.7 -4.5 94 18 9   97.82   -7 LegendNANA
09:00 -3.4 -4.1 95 21 9   97.79   -7 LegendNANA
10:00 -3.2 -4.0 94 23 7   97.75   -6 LegendNANA
11:00 -2.7 -3.7 93 24 5   97.73   -5 LegendNANA
12:00 -2.1 -3.3 92 26 6   97.65   -4 LegendNANA
13:00 -1.6 -3.0 90 27 10   97.57   -5 LegendNANA
14:00 -1.3 -2.7 90 28 7   97.51   -4 LegendNANA
15:00 -1.2 -2.8 89 29 11   97.51   -5 LegendNANA
16:00 -1.4 -2.4 93 29 12   97.52   -5 LegendNANA
17:00 -1.5 -2.3 94 27 6   97.57   -4 LegendNANA
18:00 -1.8 -2.6 94 26 5   97.54   -4 LegendNANA
19:00 -1.7 -2.6 93 28 8   97.60   -5 LegendNANA
20:00 -1.4 -3.2 88 30 12   97.58   -5 LegendNANA
21:00 -1.3 -3.4 86 29 12   97.65   -5 LegendNANA
22:00 -1.5 -3.5 86 29 8   97.67   -5 LegendNANA
23:00 -1.7 -3.6 87 28 5   97.69   -4 LegendNANA

Notes on Data Quality.

Legend

  • E = Estimated
  • M = Missing
  • NA = Not Available
  • ‡ = Partner data that is not subject to review by the National Climate Archives
Date modified: